Hourly Data Report for March 04, 2018

TORONTO CITY
ONTARIO

43°40'00.000" N
79°24'00.000" W
112.50 m
6158355
71508
XTO

Download Data

Hourly Data (March 2018)
Hourly Data Report for March 4, 2018
TIME
LST
Temp Definition
°C
Dew Point Definition
°C
Rel Hum Definition
%
Precip. Amount Definition
mm

Wind Dir Definition
10's deg

Wind Spd Definition
km/h
Visibility Definition
km
Stn Press Definition
kPa
Hmdx Definition


Wind Chill Definition


Weather Definition


00:00 0.1 -10.6 44 0.0 LegendMM LegendMM   101.65     LegendNANA
01:00 -0.2 -12.6 39 0.0 LegendMM LegendMM   101.64     LegendNANA
02:00 -0.9 -11.0 46 0.0 LegendMM LegendMM   101.66     LegendNANA
03:00 -1.2 -10.8 48 0.0 LegendMM LegendMM   101.65     LegendNANA
04:00 -1.6 -11.4 47 0.0 LegendMM LegendMM   101.69     LegendNANA
05:00 -1.9 -11.7 47 0.0 LegendMM LegendMM   101.70     LegendNANA
06:00 -2.4 -11.6 49 0.0 LegendMM LegendMM   101.76     LegendNANA
07:00 -3.0 -11.5 52 0.0 LegendMM LegendMM   101.80     LegendNANA
08:00 -2.8 -11.3 52 0.0 LegendMM LegendMM   101.82     LegendNANA
09:00
10:00
11:00
12:00 1.6 -14.1 30 0.0 LegendMM LegendMM   101.68     LegendNANA
13:00 2.2 -13.9 29 0.0 LegendMM LegendMM   101.59     LegendNANA
14:00 2.3 -13.5 30 0.0 LegendMM LegendMM   101.53     LegendNANA
15:00 2.0 -12.0 35 0.0 LegendMM LegendMM   101.49     LegendNANA
16:00 1.3 -11.5 38 0.0 LegendMM LegendMM   101.47     LegendNANA
17:00 0.4 -11.2 41 0.0 LegendMM LegendMM   101.48     LegendNANA
18:00 -0.6 -10.9 46 0.0 LegendMM LegendMM   101.50     LegendNANA
19:00 -1.3 -10.7 49 0.0 LegendMM LegendMM   101.52     LegendNANA
20:00 -1.8 -9.9 54 0.0 LegendMM LegendMM   101.50     LegendNANA
21:00 -2.0 -8.9 59 0.0 LegendMM LegendMM   101.47     LegendNANA
22:00 -2.0 -9.3 58 0.0 LegendMM LegendMM   101.46     LegendNANA
23:00 -1.6 -13.7 39 0.0 LegendMM LegendMM   101.40     LegendNANA

Notes on Data Quality.

Legend

  • E = Estimated
  • M = Missing
  • NA = Not Available*
  • [empty] = Indicates an unobserved value
Date modified: